Year,Month,Day,Hour,Minute,Value (Times are PST for temperature in C)
2012,03,26,16,03,9.40
2012,03,26,16,04,9.30
2012,03,26,16,05,9.30
2012,03,26,16,06,9.40
2012,03,26,16,07,9.40
2012,03,26,16,08,9.40
2012,03,26,16,09,9.50
2012,03,26,16,10,9.50
2012,03,26,16,11,9.50
2012,03,26,16,12,9.50
2012,03,26,16,13,9.50
2012,03,26,16,14,9.50
2012,03,26,16,15,9.50
2012,03,26,16,16,9.50
2012,03,26,16,17,9.50
2012,03,26,16,18,9.40
2012,03,26,16,19,9.30
2012,03,26,16,20,9.30
2012,03,26,16,21,9.30
2012,03,26,16,22,9.20
2012,03,26,16,23,9.20
2012,03,26,16,24,9.20
2012,03,26,16,25,9.30
2012,03,26,16,26,9.30
2012,03,26,16,27,9.30
2012,03,26,16,28,9.30
2012,03,26,16,29,9.30
2012,03,26,16,30,9.20
2012,03,26,16,31,9.20
2012,03,26,16,32,9.20
2012,03,26,16,33,9.20
2012,03,26,16,34,9.30
2012,03,26,16,35,9.30
2012,03,26,16,36,9.30
2012,03,26,16,37,9.30
2012,03,26,16,38,9.30
2012,03,26,16,39,9.30
2012,03,26,16,40,9.30
2012,03,26,16,41,9.30
2012,03,26,16,42,9.30
2012,03,26,16,43,9.30
2012,03,26,16,44,9.20
2012,03,26,16,45,9.20
2012,03,26,16,46,9.20
2012,03,26,16,47,9.20
2012,03,26,16,48,9.20
2012,03,26,16,49,9.10
2012,03,26,16,50,9.10
2012,03,26,16,51,9.10
2012,03,26,16,52,9.10
2012,03,26,16,53,9.10
2012,03,26,16,54,9.00
2012,03,26,16,55,9.00
2012,03,26,16,56,8.90
2012,03,26,16,57,8.90
2012,03,26,16,58,8.90
2012,03,26,16,59,8.80
2012,03,26,17,00,8.80
2012,03,26,17,01,8.80
2012,03,26,17,02,8.80
2012,03,26,17,03,8.80
2012,03,26,17,04,8.80
2012,03,26,17,05,8.70
2012,03,26,17,06,8.70
2012,03,26,17,07,8.70
2012,03,26,17,08,8.70
2012,03,26,17,09,8.70
2012,03,26,17,10,8.70
2012,03,26,17,11,8.70
2012,03,26,17,12,8.70
2012,03,26,17,13,8.70
2012,03,26,17,14,8.70
2012,03,26,17,15,8.70
2012,03,26,17,16,8.70
2012,03,26,17,17,8.70
2012,03,26,17,18,8.70
2012,03,26,17,19,8.70
2012,03,26,17,20,8.60
2012,03,26,17,21,8.70
2012,03,26,17,22,8.70
2012,03,26,17,23,8.70
2012,03,26,17,24,8.70
2012,03,26,17,25,8.70
2012,03,26,17,26,8.70
2012,03,26,17,27,8.70
2012,03,26,17,28,8.70
2012,03,26,17,29,8.70
2012,03,26,17,30,8.70
2012,03,26,17,31,8.70
2012,03,26,17,32,8.80
2012,03,26,17,33,8.80
2012,03,26,17,34,8.80
2012,03,26,17,35,8.80
2012,03,26,17,36,8.80
2012,03,26,17,37,8.80
2012,03,26,17,38,8.80
2012,03,26,17,39,8.80
2012,03,26,17,40,8.80
2012,03,26,17,41,8.80
2012,03,26,17,42,8.80
2012,03,26,17,43,8.80
2012,03,26,17,44,8.80
2012,03,26,17,45,8.80
2012,03,26,17,46,8.80
2012,03,26,17,47,8.80
2012,03,26,17,48,8.70
2012,03,26,17,49,8.70
2012,03,26,17,50,8.70
2012,03,26,17,51,8.70
2012,03,26,17,52,8.70
2012,03,26,17,53,8.70
2012,03,26,17,54,8.70
2012,03,26,17,55,8.60
2012,03,26,17,56,8.60
2012,03,26,17,57,8.60
2012,03,26,17,58,8.60
2012,03,26,17,59,8.60
2012,03,26,18,00,8.60
2012,03,26,18,01,8.60
2012,03,26,18,02,8.60
2012,03,26,18,03,8.60
2012,03,26,18,04,8.60
2012,03,26,18,05,8.60
2012,03,26,18,06,8.60
2012,03,26,18,07,8.60
2012,03,26,18,08,8.60
2012,03,26,18,09,8.60
2012,03,26,18,10,8.60
2012,03,26,18,11,8.60
2012,03,26,18,12,8.60
2012,03,26,18,13,8.50
2012,03,26,18,14,8.50
2012,03,26,18,15,8.50
2012,03,26,18,16,8.40
2012,03,26,18,17,8.40
2012,03,26,18,18,8.40
2012,03,26,18,19,8.40
2012,03,26,18,20,8.40
2012,03,26,18,21,8.40
2012,03,26,18,22,8.40
2012,03,26,18,23,8.40
2012,03,26,18,24,8.40
2012,03,26,18,25,8.40
2012,03,26,18,26,8.40
2012,03,26,18,27,8.40
2012,03,26,18,28,8.40
2012,03,26,18,29,8.40
2012,03,26,18,30,8.40
2012,03,26,18,31,8.30
2012,03,26,18,32,8.30
2012,03,26,18,33,8.30
2012,03,26,18,34,8.30
2012,03,26,18,35,8.30
2012,03,26,18,36,8.30
2012,03,26,18,37,8.30
2012,03,26,18,38,8.20
2012,03,26,18,39,8.20
2012,03,26,18,40,8.20
2012,03,26,18,41,8.20
2012,03,26,18,42,8.20
2012,03,26,18,43,8.10
2012,03,26,18,44,8.10
2012,03,26,18,45,8.10
2012,03,26,18,46,8.10
2012,03,26,18,47,8.00
2012,03,26,18,48,8.00
2012,03,26,18,49,8.00
2012,03,26,18,50,8.00
2012,03,26,18,51,8.00
2012,03,26,18,52,7.90
2012,03,26,18,53,7.90
2012,03,26,18,54,7.90
2012,03,26,18,55,7.90
2012,03,26,18,56,7.90
2012,03,26,18,57,7.90
2012,03,26,18,58,7.90
2012,03,26,18,59,7.90
2012,03,26,19,00,7.80
2012,03,26,19,01,7.80
2012,03,26,19,02,7.80
2012,03,26,19,03,7.80
2012,03,26,19,04,7.80
2012,03,26,19,05,7.70
2012,03,26,19,06,7.70
2012,03,26,19,07,7.70
2012,03,26,19,08,7.70
2012,03,26,19,09,7.70
2012,03,26,19,10,7.60
2012,03,26,19,11,7.60
2012,03,26,19,12,7.60
2012,03,26,19,13,7.50
2012,03,26,19,14,7.50
2012,03,26,19,15,7.50
2012,03,26,19,16,7.50
2012,03,26,19,17,7.40
2012,03,26,19,18,7.40
2012,03,26,19,19,7.40
2012,03,26,19,20,7.40
2012,03,26,19,21,7.30
2012,03,26,19,22,7.30
2012,03,26,19,23,7.30
2012,03,26,19,24,7.30
2012,03,26,19,25,7.30
2012,03,26,19,26,7.20
2012,03,26,19,27,7.20
2012,03,26,19,28,7.20
2012,03,26,19,29,7.20
2012,03,26,19,30,7.20
2012,03,26,19,31,7.20
2012,03,26,19,32,7.20
2012,03,26,19,33,7.20
2012,03,26,19,34,7.20
2012,03,26,19,35,7.10
2012,03,26,19,36,7.10
2012,03,26,19,37,7.10
2012,03,26,19,38,7.10
2012,03,26,19,39,7.10
2012,03,26,19,40,7.10
2012,03,26,19,41,7.10
2012,03,26,19,42,7.10
2012,03,26,19,43,7.10
2012,03,26,19,44,7.10
2012,03,26,19,45,7.10
2012,03,26,19,46,7.10
